Home   Weather   Wunstorf   Past weeks

Flag for Germany Past Weather in Wunstorf, Lower Saxony, Germany — Yesterday and Last 2 Weeks

Now
68 °F

Mild.


Feels Like: 68 °F
Forecast: 56 / 64 °F
Wind: 10 mph from West

Location: Wunstorf Airport

Current Time: Jul 23, 2017 at 8:37:55 pm

Latest Report: Jul 23, 2017 at 7:20 pm


Visibility: N/A

Pressure: 29.89 "Hg

Humidity: 49%

Dew Point: 48 °F

Location of WunstorfLocation

Past Weather in Wunstorf — Graph

°F

Wunstorf Temperature Yesterday

Maximum temperature yesterday: 75 °F (at 4:20 pm)
Minimum temperature yesterday: 61 °F (at 4:20 am)
Average temperature yesterday: 67 °F

High & Low Weather Summary for the Past Weeks

 TemperatureHumidityPressure
High86 °F (Jul 19, 4:20 pm)100% (Jul 10, 11:20 am)30.21 "Hg (Jul 10, 11:20 am)
Low52 °F (Jul 14, 5:20 am)38% (Jul 14, 3:38 pm)29.68 "Hg (Jul 12, 1:20 pm)
Average65 °F77%29.95 "Hg
* Reported Jul 8 6:20 pm — Jul 23 6:20 pm, Wunstorf. Weather by CustomWeather, © 2017

Note: Actual official high and low records may vary slightly from our data, if they occured in-between our weather recording intervals... More about our weather records

Advertising

Wunstorf Weather History for the Previous 24 Hours

Scroll right to see more
 ConditionsComfort  
Time TempWeatherWind HumidityBarometerVisibility
6:20 pm
Sun, Jul 23
72 °FMild.16 mph47%29.89 "HgN/A
5:20 pm70 °FMild.10 mph50%29.89 "HgN/A
4:20 pm72 °FMild.17 mph47%29.89 "HgN/A
3:20 pm72 °FMild.14 mph50%29.89 "HgN/A
2:20 pm70 °FMild.18 mph53%29.89 "HgN/A
1:20 pm68 °FMild.16 mph56%29.92 "HgN/A
12:20 pm70 °FMild.21 mph57%29.89 "HgN/A
11:20 am68 °FMild.17 mph69%29.89 "HgN/A
10:20 am64 °FMild.13 mph88%29.86 "HgN/A
9:20 am64 °FMild.8 mph88%29.86 "HgN/A
8:20 am64 °FMild.8 mph88%29.86 "HgN/A
7:20 am64 °FMild.8 mph88%29.83 "HgN/A
6:20 am64 °FMild.7 mph88%29.83 "HgN/A
5:20 am64 °FMild.5 mph94%29.83 "HgN/A
4:20 am64 °FMild.8 mph94%29.83 "HgN/A
3:20 am64 °FMild.5 mph94%29.80 "HgN/A
2:20 am64 °FMild.5 mph94%29.83 "HgN/A
12:20 am66 °FMild.5 mph88%29.86 "HgN/A
11:20 pm
Sat, Jul 22
68 °FMild.6 mph83%29.86 "HgN/A
10:20 pm70 °FMild.7 mph83%29.86 "HgN/A
9:20 pm70 °FMild.7 mph83%29.89 "HgN/A
8:20 pm72 °FMild.10 mph78%29.89 "HgN/A
Weather by CustomWeather, © 2017

See weather overviewHow to use our weather pages